Regional Weather Roundup
Issued by NWS

Home | Current Version | Previous Version | Text Only | Print | Product List | Glossary On
Versions: 1 2 3 4 5 6 7 8 9 10 11 12 13 14 15 16 17 18 19 20 21 22 23 24 25 26 27 28 29 30 31 32 33 34 35 36 37 38 39 40 41 42 43 44 45 46 47 48 49
000
ASUS42 KTBW 011210
RWRFL
FLORIDA REGIONAL WEATHER ROUNDUP
NATIONAL WEATHER SERVICE TAMPA BAY RUSKIN FL
800 AM EDT WED OCT 01 2014

NOTE: "FAIR" INDICATES FEW OR NO CLOUDS BELOW 12,000 FEET WITH NO
SIGNIFICANT WEATHER AND/OR OBSTRUCTIONS TO VISIBILITY.


FLZ001>010-012>015-112-114-115-011300-
PANHANDLE FLORIDA

CITY           SKY/WX    TMP DP  RH WIND       PRES   REMARKS
PENSACOLA      PTCLDY    68  66  93 N3        29.93R
PENSACOLA NAS  PTCLDY    68  67  96 N3        29.93R
MILTON NAS     PTCLDY    64  61  90 N3        29.95R
CRESTVIEW      PTCLDY    59  58  96 CALM      29.97R
DUKE FIELD     FAIR      62  62  99 NE3       29.95S FOG
VALPARAISO     PTCLDY    65  64  96 N5        29.95R
MARY ESTHER    CLEAR     65  62  88 NE5       29.93R
TRI COUNTY     FAIR      63  62  97 CALM      29.97R FOG
PANAMA CITY    FAIR      66  64  93 CALM      29.94R
TYNDALL AFB    MOCLDY    70  70 100 NE3       29.95R
APALACHICOLA   CLEAR     72  69  90 NE6       29.93R

STATION/POSITION SKY/WX   TEMP    WIND        PRES    WAVE   SWELL
                          AIR SEA DIR/SP/G            HT/PER HT/PER
                          (F)     (DEG/KT/KT) (MB)    (FT/S) (FT/S)
30.1N   87.6W              78 81  140/  2/  4 1013.3R   1/ 3
29.2N   88.2W              79 82  130/  6/  8 1013.0    1/ 4   2/ 4
28.8N   86.0W              80 83  120/  4/  6 1012.7R   2/ 4   2/ 6
PANAMA CITY BEAC           68 81   30/  6/  8 1013.7R
CAPE SAN BLAS    NOT AVBL
TOWER C                    78     100/ 10/ 11 1013.1R
28.5N   84.5W              79 83   80/ 12/ 14 1012.5R   3/ 5   2/ 7

$$
FLZ011-016>038-118-127-128-134-139-239-011300-
NORTH FLORIDA

CITY           SKY/WX    TMP DP  RH WIND       PRES   REMARKS
MARIANNA       CLOUDY    65  65 100 CALM      29.95R
TALLAHASSEE    MOCLDY    70  68  93 N3        29.94R
PERRY          CLOUDY    63  61  94 CALM      29.94S
CROSS CITY       N/A     73  71  93 CALM      29.93R
LAKE CITY      CLOUDY    70  68  94 CALM      29.94R
GAINESVILLE    CLOUDY    72  69  90 N3        29.93R
MAYPORT NAS    MOCLDY    78  70  76 NE10      29.93R
JACKSONVILLE   MOCLDY    72  70  93 NE3       29.93R
JAX NAS        CLOUDY    77  69  76 N6        29.94R
JAX CRAIG      CLOUDY    75  70  84 CALM      29.93R
JAX CECIL      CLOUDY    72  68  88 N5        29.94R
FERNANDINA BEA CLOUDY    81  70  69 NE3       29.92R
ST AUGUSTINE   CLOUDY    78  72  81 NE7       29.93R

STATION/POSITION SKY/WX   TEMP    WIND        PRES    WAVE   SWELL
                          AIR SEA DIR/SP/G            HT/PER HT/PER
                          (F)     (DEG/KT/KT) (MB)    (FT/S) (FT/S)
SHELL POINT                74      50/  2/  4   N/A
KEATON BEACH               73      50/  2/  4 1013.7R
CEDAR KEY                  73      50/  6/  8 1013.5R
FERNANDINA                 75 78   10/  3/  5 1013.1R
30.7N   81.3W                 79                N/A     2/ 8
MAYPORT                    78 79   50/  9/ 11   N/A
31.4N   80.9W              75 78   10/  8/ 10 1013.7R   2/ 7   2/ 7
ST AUGUSTINE               79      40/ 10/ 11 1013.6R

$$
FLZ040-043>046-052-053-057-058-063-144-011300-
INTERIOR CENTRAL FLORIDA

CITY           SKY/WX    TMP DP  RH WIND       PRES   REMARKS
OCALA          PTCLDY    72  70  94 CALM      29.92R
THE VILLAGES     N/A     75  73  94 CALM      29.82R
LEESBURG       CLOUDY    75  72  90 N3        29.92R
SANFORD        CLOUDY    76  73  91 CALM      29.91R
ORLANDO EXEC   CLOUDY    76  73  91 CALM      29.91R
ORLANDO INTL   MOCLDY    75  75 100 CALM      29.91R
WINTER HAVEN   CLOUDY    76  75  97 E5        29.92R
LAKELAND       LGT RAIN  75  73  94 SE7       29.90R FOG
BARTOW         MOCLDY    73 N/A N/A E3        29.91R FOG
OKEECHOBEE       N/A     72  72 100 MISG      29.91S

$$
FLZ041-047-054-059-064-141-147-011300-
EAST CENTRAL FLORIDA

CITY           SKY/WX    TMP DP  RH WIND       PRES   REMARKS
ORMOND BEACH   PTCLDY    77  72  83 CALM      29.91R
DAYTONA BEACH  MOCLDY    75  73  93 CALM      29.91R
DELAND         PTSUNNY   73  72  94 CALM      29.92S
NEW SMYRNA BEA PTCLDY    77  73  88 E6        29.91R
JFK SPACE CTR  CLEAR     75  74  96 W2        29.90R
TITUSVILLE     MOCLDY    72  72 100 CALM      29.91R
CAPE CANAVERAL CLEAR     75  74  96 W3        29.90R
PATRICK AFB    CLOUDY    76  75  99 NW2       29.90R
MELBOURNE      MOCLDY    76  74  93 CALM      29.90R
VERO BEACH     MOCLDY    73  72  96 CALM      29.90R
FT PIERCE      PTCLDY    75  72  90 CALM      29.90R
STUART         PTCLDY    75  73  94 CALM      29.92R

STATION/POSITION SKY/WX   TEMP    WIND        PRES    WAVE   SWELL
                          AIR SEA DIR/SP/G            HT/PER HT/PER
                          (F)     (DEG/KT/KT) (MB)    (FT/S) (FT/S)
28.5N   80.2W              79 83  260/  6/  8 1012.3R
28.9N   78.5W              81 85   10/  6/  8 1012.4R   3/ 8   3/ 8
TRIDENT PIER               77 84  260/  4/  4 1012.1R
28.4N   80.5W                 82                N/A     1/ 8
27.6N   80.2W                 83                N/A     1/ 7

$$
FLZ050-056-061-142-242-148-248-149-249-151-251-155-255-
160-260-011300-
WEST CENTRAL FLORIDA

CITY           SKY/WX    TMP DP  RH WIND       PRES   REMARKS
CRYSTAL RIVER  CLOUDY    72  70  94 NE3       29.92R
INVERNESS      CLOUDY    72  41  33 NE5       29.92R
BROOKSVILLE    CLOUDY    74  72  93 NE6       29.91R
ZEPHYRHILLS      N/A     68  68 100 NE6       29.91R
CLEARWATER     CLOUDY    77  75  93 N6        29.90R
TAMPA INTL     CLOUDY    76  74  93 N6        29.90R
TAMPA EXEC     CLOUDY    79  75  89 MISG      29.90R
PLANT CITY     CLOUDY    77 N/A N/A S3        29.92R HAZE
MACDILL AFB    CLOUDY    77  77 100 VRB3      29.90R
ST PETERSBURG  PTCLDY    76  75  97 NW8       29.88R
SARASOTA       CLEAR     80  75  84 W8        29.88R
VENICE           N/A     82  75  78 MISG      29.91R

STATION/POSITION SKY/WX   TEMP    WIND        PRES    WAVE   SWELL
                          AIR SEA DIR/SP/G            HT/PER HT/PER
                          (F)     (DEG/KT/KT) (MB)    (FT/S) (FT/S)
CEDAR KEY                  73      50/  6/  8 1013.5R
28.5N   84.5W              79 83   80/ 12/ 14 1012.5R   3/ 5   2/ 7
27.3N   84.3W                 84                N/A     2/ 5
CLEARWATER BEACH           76 82   40/  5/  6 1012.1R
MIDDLE TAMPA BAY           80     310/  9/ 10 1012.4R
VENICE                     83 84  280/ 10/ 11 1012.2R

$$
FLZ066-069-070-075>078-162-262-165-265-011300-
SOUTHWEST FLORIDA AND KEYS

CITY           SKY/WX    TMP DP  RH WIND       PRES   REMARKS
PUNTA GORDA    PTCLDY    78  76  93 S3        29.92R
FT MYERS       LGT RAIN  77  76  96 CALM      29.90R
SOUTHWEST INTL LGT RAIN  77  75  93 CALM      29.91R
NAPLES         PTCLDY    83  76  79 SW8       29.90R
MARCO ISLAND   SUNNY     81  75  83 SW6       29.91R
MARATHON       PTCLDY    83  78  85 SW6       29.93R
KEY WEST NAS   PTCLDY    83  76  79 S8        29.93R
KEY WEST INTL  PTCLDY    83  76  79 S7        29.93R

STATION/POSITION SKY/WX   TEMP    WIND        PRES    WAVE   SWELL
                          AIR SEA DIR/SP/G            HT/PER HT/PER
                          (F)     (DEG/KT/KT) (MB)    (FT/S) (FT/S)
VENICE                     83 84  280/ 10/ 11 1012.2R
NAPLES                     83 88  250/  9/ 12 1013.3R
DRY TORTUGAS               83     210/  4/  5 1012.7R
NW FL BAY                  85     230/ 10/ 12 1012.7R
SAND KEY                   83     180/ 10/ 12 1013.5R
SOMBRERO KEY               83     210/  9/ 10 1014.1R
LONG KEY                   84 85  230/ 11/ 12 1014.2R
MOLASSES REEF              83 85  230/ 10/ 12 1013.4R

$$
FLZ067-068-071>074-168-172>174-011300-
SOUTHEAST FLORIDA

CITY           SKY/WX    TMP DP  RH WIND       PRES   REMARKS
W PALM BEACH   PTCLDY    78  76  93 SW7       29.91R
FT LAUDER-EXEC CLEAR     79  76  90 S3        29.92R
FT LAUDERDALE  PTCLDY    80  77  90 SW6       29.91R
POMPANO BEACH  PTCLDY    80  77  90 SW3       29.92R
PEMBROKE PINES CLEAR     79  78  97 S3        29.93R
OPA LOCKA      CLEAR     79  76  90 SW3       29.92R
MIAMI          PTCLDY    80  76  87 SW3       29.93R
WEST KENDALL   CLEAR     79  76  90 SW3       29.93R
HOMESTEAD      CLEAR     77  76  97 S2        29.92R FOG

STATION/POSITION SKY/WX   TEMP    WIND        PRES    WAVE   SWELL
                          AIR SEA DIR/SP/G            HT/PER HT/PER
                          (F)     (DEG/KT/KT) (MB)    (FT/S) (FT/S)
PORT EVERGLADES            80     230/  3/  5 1013.1
VIRGINIA KEY               81 85  260/  9/ 10 1013.5S
LAKE WORTH                 78 85  250/  2/  4 1012.7R
FOWEY ROCKS                83 84  240/ 10/ 10 1013.6R
SETTLEMENT POINT           82     270/ 13/ 14 1013.4R

$$



USA.gov is the U.S. government's official web portal to all federal, state and local government web resources and services.